Year,Month,Day,Hour,Minute,Value (Times are PST for temperature in C)
2017,05,30,09,54,13.20
2017,05,30,09,55,13.20
2017,05,30,09,56,13.20
2017,05,30,09,57,13.20
2017,05,30,09,58,13.20
2017,05,30,09,59,13.20
2017,05,30,10,00,13.20
2017,05,30,10,01,13.20
2017,05,30,10,02,13.20
2017,05,30,10,03,13.20
2017,05,30,10,04,13.20
2017,05,30,10,05,13.10
2017,05,30,10,06,13.10
2017,05,30,10,07,13.10
2017,05,30,10,08,13.10
2017,05,30,10,09,13.10
2017,05,30,10,10,13.10
2017,05,30,10,11,13.10
2017,05,30,10,12,13.10
2017,05,30,10,13,13.10
2017,05,30,10,14,13.10
2017,05,30,10,15,13.10
2017,05,30,10,16,13.00
2017,05,30,10,17,13.00
2017,05,30,10,18,13.00
2017,05,30,10,19,13.10
2017,05,30,10,20,13.00
2017,05,30,10,21,13.00
2017,05,30,10,22,13.00
2017,05,30,10,23,13.00
2017,05,30,10,24,13.00
2017,05,30,10,25,13.00
2017,05,30,10,26,13.00
2017,05,30,10,27,13.00
2017,05,30,10,28,13.00
2017,05,30,10,29,13.00
2017,05,30,10,30,13.00
2017,05,30,10,31,13.10
2017,05,30,10,32,13.10
2017,05,30,10,33,13.00
2017,05,30,10,34,13.00
2017,05,30,10,35,13.00
2017,05,30,10,36,13.00
2017,05,30,10,37,13.00
2017,05,30,10,38,13.10
2017,05,30,10,39,13.10
2017,05,30,10,40,13.10
2017,05,30,10,41,13.10
2017,05,30,10,42,13.20
2017,05,30,10,43,13.20
2017,05,30,10,44,13.20
2017,05,30,10,45,13.20
2017,05,30,10,46,13.30
2017,05,30,10,47,13.30
2017,05,30,10,48,13.30
2017,05,30,10,49,13.40
2017,05,30,10,50,13.40
2017,05,30,10,51,13.40
2017,05,30,10,52,13.50
2017,05,30,10,53,13.50
2017,05,30,10,54,13.50
2017,05,30,10,55,13.50
2017,05,30,10,56,13.50
2017,05,30,10,57,13.60
2017,05,30,10,58,13.60
2017,05,30,10,59,13.70
2017,05,30,11,00,13.70
2017,05,30,11,01,13.80
2017,05,30,11,02,13.80
2017,05,30,11,03,13.70
2017,05,30,11,04,13.70
2017,05,30,11,05,13.70
2017,05,30,11,06,13.70
2017,05,30,11,07,13.70
2017,05,30,11,08,13.70
2017,05,30,11,09,13.70
2017,05,30,11,10,13.70
2017,05,30,11,11,13.70
2017,05,30,11,12,13.70
2017,05,30,11,13,13.70
2017,05,30,11,14,13.60
2017,05,30,11,15,13.60
2017,05,30,11,16,13.50
2017,05,30,11,17,13.50
2017,05,30,11,18,13.50
2017,05,30,11,19,13.50
2017,05,30,11,20,13.60
2017,05,30,11,21,13.60
2017,05,30,11,22,13.60
2017,05,30,11,23,13.70
2017,05,30,11,24,13.70
2017,05,30,11,25,13.80
2017,05,30,11,26,13.90
2017,05,30,11,27,13.90
2017,05,30,11,28,13.90
2017,05,30,11,29,14.00
2017,05,30,11,30,14.00
2017,05,30,11,31,14.00
2017,05,30,11,32,14.00
2017,05,30,11,33,14.00
2017,05,30,11,34,14.00
2017,05,30,11,35,14.00
2017,05,30,11,36,14.00
2017,05,30,11,37,14.00
2017,05,30,11,38,14.10
2017,05,30,11,39,14.10
2017,05,30,11,40,14.10
2017,05,30,11,41,14.20
2017,05,30,11,42,14.20
2017,05,30,11,43,14.20
2017,05,30,11,44,14.20
2017,05,30,11,45,14.20
2017,05,30,11,46,14.20
2017,05,30,11,47,14.30
2017,05,30,11,48,14.30
2017,05,30,11,49,14.30
2017,05,30,11,50,14.30
2017,05,30,11,51,14.30
2017,05,30,11,52,14.20
2017,05,30,11,53,14.20
2017,05,30,11,54,14.10
2017,05,30,11,55,14.00
2017,05,30,11,56,14.00
2017,05,30,11,57,14.00
2017,05,30,11,58,14.00
2017,05,30,11,59,14.00
2017,05,30,12,00,14.10
2017,05,30,12,01,14.10
2017,05,30,12,02,14.10
2017,05,30,12,03,14.20
2017,05,30,12,04,14.20
2017,05,30,12,05,14.20
2017,05,30,12,06,14.20
2017,05,30,12,07,14.20
2017,05,30,12,08,14.20
2017,05,30,12,09,14.20
2017,05,30,12,10,14.10
2017,05,30,12,11,14.10
2017,05,30,12,12,14.10
2017,05,30,12,13,14.10
2017,05,30,12,14,14.10
2017,05,30,12,15,14.10
2017,05,30,12,16,14.10
2017,05,30,12,17,14.10
2017,05,30,12,18,14.10
2017,05,30,12,19,14.10
2017,05,30,12,20,14.00
2017,05,30,12,21,14.00
2017,05,30,12,22,13.90
2017,05,30,12,23,13.90
2017,05,30,12,24,13.90
2017,05,30,12,25,13.90
2017,05,30,12,26,13.90
2017,05,30,12,27,13.90
2017,05,30,12,28,14.00
2017,05,30,12,29,14.00
2017,05,30,12,30,14.10
2017,05,30,12,31,14.10
2017,05,30,12,32,14.20
2017,05,30,12,33,14.30
2017,05,30,12,34,14.40
2017,05,30,12,35,14.40
2017,05,30,12,36,14.50
2017,05,30,12,37,14.60
2017,05,30,12,38,14.70
2017,05,30,12,39,14.80
2017,05,30,12,40,14.80
2017,05,30,12,41,14.80
2017,05,30,12,42,14.80
2017,05,30,12,43,14.80
2017,05,30,12,44,14.80
2017,05,30,12,45,14.80
2017,05,30,12,46,14.90
2017,05,30,12,47,14.90
2017,05,30,12,48,14.90
2017,05,30,12,49,14.90
2017,05,30,12,50,14.80
2017,05,30,12,51,14.70
2017,05,30,12,52,14.60
2017,05,30,12,53,14.50
2017,05,30,12,54,14.40
2017,05,30,12,55,14.40
2017,05,30,12,56,14.30
2017,05,30,12,57,14.20
2017,05,30,12,58,14.20
2017,05,30,12,59,14.20
2017,05,30,13,00,14.10
2017,05,30,13,01,14.10
2017,05,30,13,02,14.10
2017,05,30,13,03,14.20
2017,05,30,13,04,14.20
2017,05,30,13,05,14.20
2017,05,30,13,06,14.30
2017,05,30,13,07,14.40
2017,05,30,13,08,14.40
2017,05,30,13,09,14.40
2017,05,30,13,10,14.50
2017,05,30,13,11,14.50
2017,05,30,13,12,14.50
2017,05,30,13,13,14.50
2017,05,30,13,14,14.50
2017,05,30,13,15,14.50
2017,05,30,13,16,14.50
2017,05,30,13,17,14.60
2017,05,30,13,18,14.60
2017,05,30,13,19,14.60
2017,05,30,13,20,14.70
2017,05,30,13,21,14.80
2017,05,30,13,22,14.90
2017,05,30,13,23,15.00
2017,05,30,13,24,15.10
2017,05,30,13,25,15.10
2017,05,30,13,26,15.20
2017,05,30,13,27,15.20
2017,05,30,13,28,15.20
2017,05,30,13,29,15.20
2017,05,30,13,30,15.30
2017,05,30,13,31,15.30
2017,05,30,13,32,15.40
2017,05,30,13,33,15.40
2017,05,30,13,34,15.40
2017,05,30,13,35,15.50
2017,05,30,13,36,15.50
2017,05,30,13,37,15.50
2017,05,30,13,38,15.50
2017,05,30,13,39,15.50
2017,05,30,13,40,15.60
2017,05,30,13,41,15.70
2017,05,30,13,42,15.80
2017,05,30,13,43,15.80
2017,05,30,13,44,15.90
2017,05,30,13,45,15.90
2017,05,30,13,46,15.90
2017,05,30,13,47,15.90
2017,05,30,13,48,15.90
2017,05,30,13,49,15.90
2017,05,30,13,50,15.90
2017,05,30,13,51,15.90
2017,05,30,13,52,15.90
2017,05,30,13,53,16.00
2017,05,30,13,54,16.00
2017,05,30,13,55,15.90
2017,05,30,13,56,15.90
2017,05,30,13,57,15.90
2017,05,30,13,58,15.90
2017,05,30,13,59,16.00
2017,05,30,14,00,16.10
2017,05,30,14,01,16.20
2017,05,30,14,02,16.40
2017,05,30,14,03,16.40
2017,05,30,14,04,16.40
2017,05,30,14,05,16.50
2017,05,30,14,06,16.70
2017,05,30,14,07,16.80
2017,05,30,14,08,16.90
2017,05,30,14,09,16.90
2017,05,30,14,10,17.00
2017,05,30,14,11,17.00
2017,05,30,14,12,16.90
2017,05,30,14,13,16.90
2017,05,30,14,14,16.90
2017,05,30,14,15,16.90
2017,05,30,14,16,16.90
2017,05,30,14,17,16.90
2017,05,30,14,18,16.90
2017,05,30,14,19,17.00
2017,05,30,14,20,17.10
2017,05,30,14,21,17.10
2017,05,30,14,22,17.10
2017,05,30,14,23,17.10
2017,05,30,14,24,17.20
2017,05,30,14,25,17.20
2017,05,30,14,26,17.10
2017,05,30,14,27,17.00
2017,05,30,14,28,17.00
2017,05,30,14,29,16.90
2017,05,30,14,30,16.90
2017,05,30,14,31,16.90
2017,05,30,14,32,17.00
2017,05,30,14,33,17.10
2017,05,30,14,34,17.10
2017,05,30,14,35,17.10
2017,05,30,14,36,17.00
2017,05,30,14,37,16.90
2017,05,30,14,38,17.00
2017,05,30,14,39,17.00
2017,05,30,14,40,17.00
2017,05,30,14,41,17.10
2017,05,30,14,42,17.10
2017,05,30,14,43,17.10
2017,05,30,14,44,17.20
2017,05,30,14,45,17.30
2017,05,30,14,46,17.40
2017,05,30,14,47,17.50
2017,05,30,14,48,17.50
2017,05,30,14,49,17.60
2017,05,30,14,50,17.60
2017,05,30,14,51,17.50
2017,05,30,14,52,17.50
2017,05,30,14,53,17.40
2017,05,30,14,54,17.40
2017,05,30,14,55,17.40
2017,05,30,14,56,17.40
2017,05,30,14,57,17.30
2017,05,30,14,58,17.20
2017,05,30,14,59,17.30
2017,05,30,15,00,17.40
2017,05,30,15,01,17.30
2017,05,30,15,02,17.20
2017,05,30,15,03,17.10
2017,05,30,15,04,17.00
2017,05,30,15,05,16.90
2017,05,30,15,06,16.80
2017,05,30,15,07,16.70
2017,05,30,15,08,16.50
2017,05,30,15,09,16.40
2017,05,30,15,10,16.20
2017,05,30,15,11,16.10
2017,05,30,15,12,16.00
2017,05,30,15,13,15.90
2017,05,30,15,14,16.00
2017,05,30,15,15,16.00
2017,05,30,15,16,16.00
2017,05,30,15,17,15.90
2017,05,30,15,18,15.90
2017,05,30,15,19,15.80
2017,05,30,15,20,15.70
2017,05,30,15,21,15.70
2017,05,30,15,22,15.80
2017,05,30,15,23,15.80
2017,05,30,15,24,15.80
2017,05,30,15,25,15.70
2017,05,30,15,26,15.70
2017,05,30,15,27,15.70
2017,05,30,15,28,15.60
2017,05,30,15,29,15.60
2017,05,30,15,30,15.50
2017,05,30,15,31,15.50
2017,05,30,15,32,15.40
2017,05,30,15,33,15.40
2017,05,30,15,34,15.40
2017,05,30,15,35,15.40
2017,05,30,15,36,15.40
2017,05,30,15,37,15.40
2017,05,30,15,38,15.40
2017,05,30,15,39,15.40
2017,05,30,15,40,15.30
2017,05,30,15,41,15.30
2017,05,30,15,42,15.30
2017,05,30,15,43,15.30
2017,05,30,15,44,15.20
2017,05,30,15,45,15.20
2017,05,30,15,46,15.20
2017,05,30,15,47,15.20
2017,05,30,15,48,15.20
2017,05,30,15,49,15.10
2017,05,30,15,50,15.10
2017,05,30,15,51,15.10
2017,05,30,15,52,15.10
2017,05,30,15,53,15.10
2017,05,30,15,54,15.10
2017,05,30,15,55,15.10
2017,05,30,15,56,15.10
2017,05,30,15,57,15.10
2017,05,30,15,58,15.10
2017,05,30,15,59,15.00
2017,05,30,16,00,15.00
2017,05,30,16,01,15.00
2017,05,30,16,02,14.90
2017,05,30,16,03,15.00
2017,05,30,16,04,15.00
2017,05,30,16,05,15.00
2017,05,30,16,06,15.10
2017,05,30,16,07,15.00
2017,05,30,16,08,15.00
2017,05,30,16,09,14.90
2017,05,30,16,10,14.80
2017,05,30,16,11,14.80
2017,05,30,16,12,14.80
2017,05,30,16,13,14.80
2017,05,30,16,14,14.80
2017,05,30,16,15,14.80
2017,05,30,16,16,14.90
2017,05,30,16,17,14.90
2017,05,30,16,18,14.90
2017,05,30,16,19,14.90
2017,05,30,16,20,14.90
2017,05,30,16,21,14.90
2017,05,30,16,22,14.90
2017,05,30,16,23,14.90
2017,05,30,16,24,14.90
2017,05,30,16,25,14.90
2017,05,30,16,26,14.90
2017,05,30,16,27,14.90
2017,05,30,16,28,14.90
2017,05,30,16,29,14.90
2017,05,30,16,30,14.90
2017,05,30,16,31,14.90
2017,05,30,16,32,14.90
2017,05,30,16,33,14.90
2017,05,30,16,34,15.00
2017,05,30,16,35,15.10
2017,05,30,16,36,15.20
2017,05,30,16,37,15.30
2017,05,30,16,38,15.30
2017,05,30,16,39,15.30
2017,05,30,16,40,15.40
2017,05,30,16,41,15.50
2017,05,30,16,42,15.50
2017,05,30,16,43,15.60
2017,05,30,16,44,15.60
2017,05,30,16,45,15.60
2017,05,30,16,46,15.70
2017,05,30,16,47,15.80
2017,05,30,16,48,15.80
2017,05,30,16,49,15.80
2017,05,30,16,50,15.90
2017,05,30,16,51,16.00
2017,05,30,16,52,16.10
2017,05,30,16,53,16.20
2017,05,30,16,54,16.30
2017,05,30,16,55,16.20
2017,05,30,16,56,16.10
2017,05,30,16,57,16.00
2017,05,30,16,58,15.90
2017,05,30,16,59,15.90
2017,05,30,17,00,15.90
2017,05,30,17,01,16.00
2017,05,30,17,02,16.10
2017,05,30,17,03,16.20
2017,05,30,17,04,16.20
2017,05,30,17,05,16.20
2017,05,30,17,06,16.20
2017,05,30,17,07,16.20
2017,05,30,17,08,16.30
2017,05,30,17,09,16.40
2017,05,30,17,10,16.40
2017,05,30,17,11,16.40
2017,05,30,17,12,16.50
2017,05,30,17,13,16.50
2017,05,30,17,14,16.60
2017,05,30,17,15,16.70
2017,05,30,17,16,16.60
2017,05,30,17,17,16.60
2017,05,30,17,18,16.50
2017,05,30,17,19,16.50
2017,05,30,17,20,16.30
2017,05,30,17,21,16.30
2017,05,30,17,22,16.20
2017,05,30,17,23,16.20
2017,05,30,17,24,16.30
2017,05,30,17,25,16.30
2017,05,30,17,26,16.40
2017,05,30,17,27,16.50
2017,05,30,17,28,16.60
2017,05,30,17,29,16.60
2017,05,30,17,30,16.60
2017,05,30,17,31,16.60
2017,05,30,17,32,16.60
2017,05,30,17,33,16.50
2017,05,30,17,34,16.50
2017,05,30,17,35,16.40
2017,05,30,17,36,16.50
2017,05,30,17,37,16.40
2017,05,30,17,38,16.40
2017,05,30,17,39,16.40
2017,05,30,17,40,16.40
2017,05,30,17,41,16.40
2017,05,30,17,42,16.40
2017,05,30,17,43,16.30
2017,05,30,17,44,16.40
2017,05,30,17,45,16.40
2017,05,30,17,46,16.30
2017,05,30,17,47,16.30
2017,05,30,17,48,16.20
2017,05,30,17,49,16.30
2017,05,30,17,50,16.30
2017,05,30,17,51,16.30
2017,05,30,17,52,16.20
2017,05,30,17,53,16.10
2017,05,30,17,54,16.10
2017,05,30,17,55,16.10
2017,05,30,17,56,16.00
2017,05,30,17,57,16.00
2017,05,30,17,58,16.00
2017,05,30,17,59,16.00
2017,05,30,18,00,15.90
2017,05,30,18,01,16.00
2017,05,30,18,02,16.00
2017,05,30,18,03,16.00
2017,05,30,18,04,16.00
2017,05,30,18,05,16.00
2017,05,30,18,06,16.10
2017,05,30,18,07,16.00
2017,05,30,18,08,16.00
2017,05,30,18,09,15.90
2017,05,30,18,10,15.90
2017,05,30,18,11,15.90
2017,05,30,18,12,15.80
2017,05,30,18,13,15.80
2017,05,30,18,14,15.80
2017,05,30,18,15,15.80
2017,05,30,18,16,15.70
2017,05,30,18,17,15.70
2017,05,30,18,18,15.70
2017,05,30,18,19,15.70
2017,05,30,18,20,15.60
2017,05,30,18,21,15.50
2017,05,30,18,22,15.50
2017,05,30,18,23,15.50
2017,05,30,18,24,15.50
2017,05,30,18,25,15.50
2017,05,30,18,26,15.50
2017,05,30,18,27,15.60
2017,05,30,18,28,15.50
2017,05,30,18,29,15.50
2017,05,30,18,30,15.40
2017,05,30,18,31,15.40
2017,05,30,18,32,15.40
2017,05,30,18,33,15.40
2017,05,30,18,34,15.50
2017,05,30,18,35,15.50
2017,05,30,18,36,15.40
2017,05,30,18,37,15.40
2017,05,30,18,38,15.40
2017,05,30,18,39,15.30
2017,05,30,18,40,15.30
2017,05,30,18,41,15.30
2017,05,30,18,42,15.30
2017,05,30,18,43,15.20
2017,05,30,18,44,15.20
2017,05,30,18,45,15.20
2017,05,30,18,46,15.20
2017,05,30,18,47,15.30
2017,05,30,18,48,15.30
2017,05,30,18,49,15.30
2017,05,30,18,50,15.30
2017,05,30,18,51,15.20
2017,05,30,18,52,15.20
2017,05,30,18,53,15.10
2017,05,30,18,54,15.10
2017,05,30,18,55,15.10
2017,05,30,18,56,15.10
2017,05,30,18,57,15.10
2017,05,30,18,58,15.10
2017,05,30,18,59,15.10
2017,05,30,19,00,15.10
2017,05,30,19,01,15.10
2017,05,30,19,02,15.10
2017,05,30,19,03,15.00
2017,05,30,19,04,15.10
2017,05,30,19,05,15.10
2017,05,30,19,06,15.00
2017,05,30,19,07,15.00
2017,05,30,19,08,14.90
2017,05,30,19,09,14.90
2017,05,30,19,10,14.90
2017,05,30,19,11,14.90
2017,05,30,19,12,14.90
2017,05,30,19,13,14.90
2017,05,30,19,14,14.90
2017,05,30,19,15,14.90
2017,05,30,19,16,14.90
2017,05,30,19,17,14.90
2017,05,30,19,18,14.80
2017,05,30,19,19,14.80
2017,05,30,19,20,14.80
2017,05,30,19,21,14.80
2017,05,30,19,22,14.80
2017,05,30,19,23,14.70
2017,05,30,19,24,14.70
2017,05,30,19,25,14.60
2017,05,30,19,26,14.60
2017,05,30,19,27,14.60
2017,05,30,19,28,14.60
2017,05,30,19,29,14.60
2017,05,30,19,30,14.50
2017,05,30,19,31,14.50
2017,05,30,19,32,14.50
2017,05,30,19,33,14.50
2017,05,30,19,34,14.50
2017,05,30,19,35,14.50
2017,05,30,19,36,14.50
2017,05,30,19,37,14.50
2017,05,30,19,38,14.50
2017,05,30,19,39,14.50
2017,05,30,19,40,14.50
2017,05,30,19,41,14.40
2017,05,30,19,42,14.40
2017,05,30,19,43,14.40
2017,05,30,19,44,14.40
2017,05,30,19,45,14.30
2017,05,30,19,46,14.30
2017,05,30,19,47,14.30
2017,05,30,19,48,14.30
2017,05,30,19,49,14.20
2017,05,30,19,50,14.20
2017,05,30,19,51,14.20
2017,05,30,19,52,14.20
2017,05,30,19,53,14.10
2017,05,30,19,54,14.10
2017,05,30,19,55,14.10
2017,05,30,19,56,14.10
2017,05,30,19,57,14.10
2017,05,30,19,58,14.10
2017,05,30,19,59,14.10
2017,05,30,20,00,14.10
2017,05,30,20,01,14.10
2017,05,30,20,02,14.10
2017,05,30,20,03,14.10
2017,05,30,20,04,14.10
2017,05,30,20,05,14.10
2017,05,30,20,06,14.10
2017,05,30,20,07,14.10
2017,05,30,20,08,14.10
2017,05,30,20,09,14.00
2017,05,30,20,10,14.00
2017,05,30,20,11,14.00
2017,05,30,20,12,13.90
2017,05,30,20,13,13.90
2017,05,30,20,14,13.90
2017,05,30,20,15,13.90
2017,05,30,20,16,13.90
2017,05,30,20,17,13.90
2017,05,30,20,18,13.90
2017,05,30,20,19,13.90
2017,05,30,20,20,13.80
2017,05,30,20,21,13.80
2017,05,30,20,22,13.80
2017,05,30,20,23,13.80
2017,05,30,20,24,13.80
2017,05,30,20,25,13.80
2017,05,30,20,26,13.80
2017,05,30,20,27,13.80
2017,05,30,20,28,13.80
2017,05,30,20,29,13.80
2017,05,30,20,30,13.80
2017,05,30,20,31,13.80
2017,05,30,20,32,13.80
2017,05,30,20,33,13.80
2017,05,30,20,34,13.80
2017,05,30,20,35,13.70
2017,05,30,20,36,13.70
2017,05,30,20,37,13.70
2017,05,30,20,38,13.70
2017,05,30,20,39,13.70
2017,05,30,20,40,13.60
2017,05,30,20,41,13.60
2017,05,30,20,42,13.60
2017,05,30,20,43,13.60
2017,05,30,20,44,13.50
2017,05,30,20,45,13.50
2017,05,30,20,46,13.50
2017,05,30,20,47,13.50
2017,05,30,20,48,13.50
2017,05,30,20,49,13.40
2017,05,30,20,50,13.40
2017,05,30,20,51,13.40
2017,05,30,20,52,13.40
2017,05,30,20,53,13.40
2017,05,30,20,54,13.40
2017,05,30,20,55,13.40
2017,05,30,20,56,13.40
2017,05,30,20,57,13.30
2017,05,30,20,58,13.30
2017,05,30,20,59,13.30
2017,05,30,21,00,13.30
2017,05,30,21,01,13.30
2017,05,30,21,02,13.30
2017,05,30,21,03,13.30
2017,05,30,21,04,13.30
2017,05,30,21,05,13.30
2017,05,30,21,06,13.30
2017,05,30,21,07,13.30
2017,05,30,21,08,13.30
2017,05,30,21,09,13.30
2017,05,30,21,10,13.30
2017,05,30,21,11,13.30
2017,05,30,21,12,13.30
2017,05,30,21,13,13.30
2017,05,30,21,14,13.30
2017,05,30,21,15,13.20
2017,05,30,21,16,13.20
2017,05,30,21,17,13.20
2017,05,30,21,18,13.20
2017,05,30,21,19,13.20
2017,05,30,21,20,13.20
2017,05,30,21,21,13.20
2017,05,30,21,22,13.20
2017,05,30,21,23,13.20
2017,05,30,21,24,13.10
2017,05,30,21,25,13.10
2017,05,30,21,26,13.10
2017,05,30,21,27,13.10
2017,05,30,21,28,13.10
2017,05,30,21,29,13.10
2017,05,30,21,30,13.10
2017,05,30,21,31,13.10
2017,05,30,21,32,13.10
2017,05,30,21,33,13.10
2017,05,30,21,34,13.00
2017,05,30,21,35,13.00
2017,05,30,21,36,13.00
2017,05,30,21,37,13.00
2017,05,30,21,38,13.00
2017,05,30,21,39,13.00
2017,05,30,21,40,13.00
2017,05,30,21,41,13.00
2017,05,30,21,42,13.00
2017,05,30,21,43,13.00
2017,05,30,21,44,13.00
2017,05,30,21,45,12.90
2017,05,30,21,46,12.90
2017,05,30,21,47,12.90
2017,05,30,21,48,12.90
2017,05,30,21,49,12.90
2017,05,30,21,50,12.90
2017,05,30,21,51,12.90
2017,05,30,21,52,12.90
2017,05,30,21,53,12.90
2017,05,30,21,54,12.90
2017,05,30,21,55,12.90
2017,05,30,21,56,12.90
2017,05,30,21,57,12.90
2017,05,30,21,58,12.90
2017,05,30,21,59,12.90
2017,05,30,22,00,12.90
2017,05,30,22,01,12.90
2017,05,30,22,02,12.90
2017,05,30,22,03,12.90
2017,05,30,22,04,12.90
2017,05,30,22,05,12.80
2017,05,30,22,06,12.80
2017,05,30,22,07,12.80
2017,05,30,22,08,12.80
2017,05,30,22,09,12.80
2017,05,30,22,10,12.80
2017,05,30,22,11,12.80
2017,05,30,22,12,12.80
2017,05,30,22,13,12.80
2017,05,30,22,14,12.80
2017,05,30,22,15,12.70
2017,05,30,22,16,12.70
2017,05,30,22,17,12.70
2017,05,30,22,18,12.70
2017,05,30,22,19,12.70
2017,05,30,22,20,12.70
2017,05,30,22,21,12.70
2017,05,30,22,22,12.70
2017,05,30,22,23,12.70
2017,05,30,22,24,12.70
2017,05,30,22,25,12.70
2017,05,30,22,26,12.70
2017,05,30,22,27,12.60
2017,05,30,22,28,12.60
2017,05,30,22,29,12.60
2017,05,30,22,30,12.60
2017,05,30,22,31,12.60
2017,05,30,22,32,12.60
2017,05,30,22,33,12.60
2017,05,30,22,34,12.60
2017,05,30,22,35,12.60
2017,05,30,22,36,12.60
2017,05,30,22,37,12.60
2017,05,30,22,38,12.60
2017,05,30,22,39,12.60
2017,05,30,22,40,12.60
2017,05,30,22,41,12.60
2017,05,30,22,42,12.60
2017,05,30,22,43,12.60
2017,05,30,22,44,12.60
2017,05,30,22,45,12.60
2017,05,30,22,46,12.60
2017,05,30,22,47,12.60
2017,05,30,22,48,12.60
2017,05,30,22,49,12.60
2017,05,30,22,50,12.50
2017,05,30,22,51,12.50
2017,05,30,22,52,12.50
2017,05,30,22,53,12.50
2017,05,30,22,54,12.50
2017,05,30,22,55,12.50
2017,05,30,22,56,12.50
2017,05,30,22,57,12.50
2017,05,30,22,58,12.50
2017,05,30,22,59,12.40
2017,05,30,23,00,12.40
2017,05,30,23,01,12.40
2017,05,30,23,02,12.40
2017,05,30,23,03,12.40
2017,05,30,23,04,12.40
2017,05,30,23,05,12.40
2017,05,30,23,06,12.40
2017,05,30,23,07,12.40
2017,05,30,23,08,12.40
2017,05,30,23,09,12.40
2017,05,30,23,10,12.40
2017,05,30,23,11,12.40
2017,05,30,23,12,12.40
2017,05,30,23,13,12.40
2017,05,30,23,14,12.40
2017,05,30,23,15,12.40
2017,05,30,23,16,12.40
2017,05,30,23,17,12.40
2017,05,30,23,18,12.40
2017,05,30,23,19,12.40
2017,05,30,23,20,12.40
2017,05,30,23,21,12.40
2017,05,30,23,22,12.40
2017,05,30,23,23,12.40
2017,05,30,23,24,12.40
2017,05,30,23,25,12.40
2017,05,30,23,26,12.40
2017,05,30,23,27,12.40
2017,05,30,23,28,12.40
2017,05,30,23,29,12.40
2017,05,30,23,30,12.40
2017,05,30,23,31,12.40
2017,05,30,23,32,12.40
2017,05,30,23,33,12.40
2017,05,30,23,34,12.40
2017,05,30,23,35,12.40
2017,05,30,23,36,12.30
2017,05,30,23,37,12.30
2017,05,30,23,38,12.30
2017,05,30,23,39,12.30
2017,05,30,23,40,12.30
2017,05,30,23,41,12.30
2017,05,30,23,42,12.30
2017,05,30,23,43,12.30
2017,05,30,23,44,12.30
2017,05,30,23,45,12.30
2017,05,30,23,46,12.30
2017,05,30,23,47,12.30
2017,05,30,23,48,12.30
2017,05,30,23,49,12.30
2017,05,30,23,50,12.30
2017,05,30,23,51,12.30
2017,05,30,23,52,12.30
2017,05,30,23,53,12.30
2017,05,30,23,54,12.30
2017,05,30,23,55,12.30
2017,05,30,23,56,12.30
2017,05,30,23,57,12.30
2017,05,30,23,58,12.30
2017,05,30,23,59,12.30
